Location: Newark
(47.3000°N, 8.0500°E)
Time: 07:22:03
(UTC+00:00)

OTV 5 (USA 277) - Pass Details

Date: 01 September 2019
Orbit: 295 x 339 km, 54.5° (Epoch: 08 September)

Event Time Altitude Azimuth Distance (km) Brightness Sun altitude
Rises 19:50:54 0° 294° (WNW) 2,002 ? -16.7°
Reaches altitude 10° 19:53:18 10° 318° (NW) 1,172 ? -17.1°
Maximum altitude 19:55:03 16° 0° (N) 892 ? -17.3°
Enters shadow 19:56:11 13° 31° (NNE) 1,013 ? -17.5°
